Location: Wanzleben
(52.0609°N, 11.4408°E)
Time: 00:01:24
(UTC+00:00)

Lacrosse 5 rocket - Pass Details

Date: 18 September 2020
Orbit: 460 x 635 km, 57.0° (Epoch: 23 October)

Event Time Altitude Azimuth Distance (km) Brightness Sun altitude
Rises 21:26:39 0° 294° (WNW) 2,844 5.7 -32.4°
Reaches altitude 10° 21:28:55 10° 298° (WNW) 1,964 4.8 -32.6°
Enters shadow 21:30:47 24° 306° (NW) 1,278 3.6 -32.7°
